Location: Oteiza
(42.6167°N, 1.9500°W)
Time: 23:17:04
(UTC+01:00)

Amateur Radio Satellites - All Passes

Search period start: 23 March 2017 22:47
Search period end: 24 March 2017 22:47
Location: Oteiza, 42.6167°N, 1.9500°W

Satellite Date Start Highest point End Downlink Frequencies (MHz)
Time Altitude Azimuth
DELFI C3 23 Mar 22:52:10 22:55:17 23° 265° (W) 22:58:26 145.870
Tancredo 1 23 Mar 22:56:03 22:59:13 83° 328° (NNW) 23:02:25 437.200
FO-29 23 Mar 23:19:49 23:25:45 45° 97° (E) 23:31:02 435.910
SPROUT 23 Mar 23:22:53 23:25:03 14° 62° (ENE) 23:27:13 437.525
TIGRISAT 23 Mar 23:24:51 23:29:20 87° 101° (E) 23:33:41 435.000
UNISAT 6 23 Mar 23:34:00 23:38:27 69° 285° (WNW) 23:42:46 437.425
50 SAT 23 Mar 23:37:53 23:38:38 11° 63° (ENE) 23:39:21 437.505
DX 1 23 Mar 23:38:57 23:39:29 10° 59° (ENE) 23:40:01 434.975-435.025
POLYITAN 1 23 Mar 23:40:27 23:41:02 10° 89° (E) 23:41:37 437.675
QB50P2 23 Mar 23:43:42 23:45:35 13° 90° (E) 23:47:27 145.880/145.840
VELOX 1 23 Mar 23:46:54 23:50:39 28° 68° (ENE) 23:54:27 145.980
PRISM 23 Mar 23:49:16 23:52:34 23° 293° (WNW) 23:55:52 437.425
SO-50 23 Mar 23:51:56 23:55:44 26° 44° (NE) 23:59:30 436.795
BEESAT 3 23 Mar 23:52:31 23:56:23 66° 121° (ESE) 00:00:21 437.485
LO-87 23 Mar 23:54:37 23:57:50 31° 263° (W) 00:01:06 145.935 - 145.965
ESTCUBE 1 23 Mar 23:55:10 23:59:38 75° 257° (WSW) 00:04:08 437.505/2401.250
DUCHIFAT 1 24 Mar 00:00:45 00:03:11 15° 91° (E) 00:05:36 145.980
BEESAT 2 24 Mar 00:00:53 00:04:23 31° 115° (ESE) 00:07:57 435.950
RS-15 24 Mar 00:15:16 00:26:29 45° 252° (WSW) 00:37:14 29.354- 29.394
ISS 24 Mar 00:17:39 00:20:28 26° 341° (NNW) 00:23:17 437.550
UKube-1 24 Mar 00:22:57 00:26:11 21° 65° (ENE) 00:29:26 .
AO-85 24 Mar 00:27:26 00:28:29 11° 324° (NW) 00:29:31 145.980
BUGSAT 1 24 Mar 00:32:08 00:33:00 11° 89° (E) 00:33:53 437.445
Tancredo 1 24 Mar 00:33:14 00:35:45 21° 345° (NNW) 00:38:17 437.200
NANOSAT C BR1 24 Mar 00:43:38 00:47:46 49° 100° (E) 00:51:51 145.865
AIST 2D 24 Mar 00:45:58 00:49:27 65° 284° (WNW) 00:52:53 435.315
EO-79 24 Mar 00:45:59 00:50:10 58° 100° (E) 00:54:20 145.935-145.965
SPROUT 24 Mar 00:56:12 01:00:27 61° 259° (WSW) 01:04:44 437.525
TIGRISAT 24 Mar 01:04:39 01:05:16 10° 301° (WNW) 01:05:53 435.000
FO-29 24 Mar 01:05:21 01:10:31 28° 299° (WNW) 01:15:14 435.910
50 SAT 24 Mar 01:07:53 01:11:14 49° 260° (W) 01:14:37 437.505
DX 1 24 Mar 01:10:37 01:14:57 87° 257° (WSW) 01:19:21 434.975-435.025
POLYITAN 1 24 Mar 01:13:03 01:17:18 70° 285° (WNW) 01:21:29 437.675
QB50P2 24 Mar 01:17:34 01:21:45 57° 286° (WNW) 01:25:53 145.880/145.840
VELOX 1 24 Mar 01:23:18 01:27:03 27° 264° (W) 01:30:51 145.980
BEESAT 3 24 Mar 01:31:58 01:34:25 16° 320° (NW) 01:36:54 437.485
SO-50 24 Mar 01:32:05 01:36:20 42° 243° (WSW) 01:40:32 436.795
DUCHIFAT 1 24 Mar 01:35:03 01:39:07 47° 288° (WNW) 01:43:09 145.980
BEESAT 2 24 Mar 01:38:47 01:42:10 26° 313° (NW) 01:45:36 435.950
Gurwin Techsat 1B 24 Mar 01:52:30 01:55:38 16° 90° (E) 01:58:45 435.225
ISS 24 Mar 01:55:30 01:57:45 17° 1° (N) 01:59:59 437.550
UKube-1 24 Mar 01:58:00 02:01:59 37° 262° (W) 02:06:00 .
Oscar 19 24 Mar 02:03:35 02:08:16 34° 97° (E) 02:12:57 437.125/150
BUGSAT 1 24 Mar 02:04:38 02:08:49 66° 285° (WNW) 02:12:55 437.445
Tancredo 1 24 Mar 02:10:34 02:12:45 17° 6° (N) 02:14:56 437.200
NANOSAT C BR1 24 Mar 02:20:31 02:23:04 16° 296° (WNW) 02:25:36 145.865
BEESAT 24 Mar 02:23:08 02:27:20 31° 67° (ENE) 02:31:32 436.000
EO-79 24 Mar 02:23:16 02:25:27 14° 298° (WNW) 02:27:38 145.935-145.965
ITUPSAT 1 24 Mar 02:36:46 02:41:15 41° 70° (ENE) 02:45:45 437.325
O/OREOS (USA 219) 24 Mar 02:40:42 02:43:57 19° 53° (NE) 02:47:11 437.305
MOZHAYETS 4 24 Mar 03:09:06 03:13:15 35° 69° (ENE) 03:17:25
KKS-1 24 Mar 03:17:56 03:18:39 10° 59° (ENE) 03:19:23 437.445
AO-7 24 Mar 03:25:04 03:30:56 21° 91° (E) 03:36:47 .
Gurwin Techsat 1B 24 Mar 03:30:46 03:36:04 68° 287° (WNW) 03:41:19 435.225
ISS 24 Mar 03:32:02 03:34:59 29° 21° (NNE) 03:37:56 437.550
Oscar 19 24 Mar 03:43:01 03:47:30 31° 294° (WNW) 03:51:59 437.125/150
ITAMSAT 1 24 Mar 03:43:33 03:47:59 28° 95° (E) 03:52:23 435.822/435.867
Tancredo 1 24 Mar 03:46:33 03:49:34 37° 25° (NNE) 03:52:35 437.200
CUBESAT XI-V 24 Mar 03:53:49 03:56:53 18° 64° (ENE) 03:59:57 437.345
BEESAT 24 Mar 04:00:56 04:05:04 29° 264° (W) 04:09:13 436.000
STARS 24 Mar 04:01:39 04:03:49 14° 61° (ENE) 04:05:59 437.465
ITUPSAT 1 24 Mar 04:15:32 04:19:14 22° 266° (W) 04:22:56 437.325
O/OREOS (USA 219) 24 Mar 04:19:11 04:23:41 53° 252° (WSW) 04:28:09 437.305
MOZHAYETS 4 24 Mar 04:46:44 04:50:28 24° 266° (W) 04:54:12
KKS-1 24 Mar 04:50:01 04:54:29 89° 239° (WSW) 04:59:00 437.445
ISS 24 Mar 05:08:23 05:11:35 48° 219° (SW) 05:14:46 437.550
AO-7 24 Mar 05:16:16 05:24:36 84° 290° (WNW) 05:32:54 .
ITAMSAT 1 24 Mar 05:22:44 05:27:30 37° 292° (WNW) 05:32:14 435.822/435.867
Tancredo 1 24 Mar 05:22:48 05:25:40 30° 223° (SW) 05:28:33 437.200
M-CUBED/EXP-1 PRIME 24 Mar 05:25:49 05:28:40 22° 60° (ENE) 05:31:42 437.505
CUBESAT XI-V 24 Mar 05:29:25 05:33:52 50° 261° (W) 05:38:20 437.345
AO-85 24 Mar 05:34:11 05:36:33 15° 41° (NE) 05:38:55 145.980
STARS 24 Mar 05:35:13 05:39:36 66° 259° (WSW) 05:44:02 437.465
DOVE 4 24 Mar 06:08:33 06:12:31 21° 91° (E) 06:16:26 437.250
XW-2D 24 Mar 06:14:39 06:16:06 12° 91° (E) 06:17:33 145.860 - 145.880
XW-2B 24 Mar 06:20:06 06:22:00 13° 91° (E) 06:23:54 145.730 - 145.750
NUDT-PHONESAT 24 Mar 06:25:25 06:26:57 12° 91° (E) 06:28:29 437.300
KAITUO 1B 24 Mar 06:28:23 06:30:16 13° 91° (E) 06:32:09 145.475/437.950
XW-2C 24 Mar 06:29:33 06:32:09 18° 93° (E) 06:34:43 145.795 - 145.815
STRAND 1 24 Mar 06:43:35 06:47:53 28° 65° (ENE) 06:52:12 437.568
CUTE-I 24 Mar 06:49:44 06:54:30 32° 96° (E) 06:59:13 437.470
M-CUBED/EXP-1 PRIME 24 Mar 06:59:51 07:02:59 28° 260° (W) 07:06:21 437.505
AO-7 24 Mar 07:10:31 07:16:13 21° 310° (NW) 07:21:56 .
AO-85 24 Mar 07:13:26 07:17:19 65° 240° (WSW) 07:21:19 145.980
LilacSat-2 24 Mar 07:18:37 07:22:24 77° 102° (ESE) 07:26:09 437.200
XW-2F 24 Mar 07:22:51 07:26:36 80° 102° (ESE) 07:30:19 145.980 - 146.000
NO-84 24 Mar 07:41:23 07:43:27 18° 129° (SE) 07:45:31 435.350 FM
DOVE 4 24 Mar 07:45:18 07:50:27 52° 288° (WNW) 07:55:32 437.250
XW-2D 24 Mar 07:46:57 07:50:34 46° 287° (WNW) 07:54:09 145.860 - 145.880
XW-2B 24 Mar 07:52:52 07:56:24 41° 288° (WNW) 07:59:56 145.730 - 145.750
NUDT-PHONESAT 24 Mar 07:57:36 08:01:08 43° 287° (WNW) 08:04:37 437.300
KAITUO 1B 24 Mar 08:01:01 08:04:29 39° 287° (WNW) 08:07:56 145.475/437.950
CUBEBUG 2 24 Mar 08:02:03 08:03:51 12° 88° (E) 08:05:37 437.445
XW-2C 24 Mar 08:03:05 08:06:25 31° 289° (WNW) 08:09:43 145.795 - 145.815
YUBILEINY 24 Mar 08:04:54 08:13:15 52° 89° (E) 08:21:35 435.215
BEESAT 3 24 Mar 08:08:40 08:12:35 47° 52° (NE) 08:16:27 437.485
BEESAT 2 24 Mar 08:17:41 08:21:10 27° 47° (NE) 08:24:37 435.950
STRAND 1 24 Mar 08:22:07 08:26:53 38° 262° (W) 08:31:42 437.568
CUTE-I 24 Mar 08:29:43 08:34:32 35° 293° (WNW) 08:39:19 437.470
HO-68 24 Mar 08:32:44 08:39:47 57° 102° (ESE) 08:46:49 435.675
AAUSAT CUBESAT 2 24 Mar 08:42:06 08:45:25 23° 94° (E) 08:48:44 437.432
SEEDS 24 Mar 08:48:04 08:52:12 56° 100° (E) 08:56:18 437.485
CUTE 1.7 + AOD 2 24 Mar 08:49:07 08:53:20 89° 103° (ESE) 08:57:33 437.475
AO-73 24 Mar 08:52:31 08:54:36 13° 90° (E) 08:56:38 145.935
XW-2A 24 Mar 08:57:08 09:00:23 44° 286° (WNW) 09:03:36 145.665 - 145.685
UNISAT 6 24 Mar 08:59:04 09:01:15 13° 61° (ENE) 09:03:26 437.425
PRISM 24 Mar 09:03:53 09:07:10 24° 67° (ENE) 09:10:29 437.425
UWE-3 24 Mar 09:09:17 09:13:24 39° 97° (E) 09:17:22 435.000/436.395/437.385
NO-84 24 Mar 09:18:10 09:20:48 33° 327° (NNW) 09:23:28 435.350 FM
FO-29 24 Mar 09:31:20 09:37:46 29° 62° (ENE) 09:43:53 435.910
CUBEBUG 2 24 Mar 09:36:31 09:40:56 62° 286° (WNW) 09:45:11 437.445
BEESAT 3 24 Mar 09:47:16 09:49:48 16° 249° (WSW) 09:52:19 437.485
Oscar 11 24 Mar 09:54:45 09:59:00 57° 100° (E) 10:03:13 .
PCSat 24 Mar 09:55:12 09:59:25 24° 107° (ESE) 10:03:40 145.827
BEESAT 2 24 Mar 09:55:19 09:58:57 32° 245° (WSW) 10:02:33 435.950
ZACube-1 24 Mar 09:56:44 10:01:01 78° 101° (E) 10:05:11 437.345
YUBILEINY 24 Mar 10:02:26 10:10:19 36° 290° (WNW) 10:18:12 435.215
AAUSAT CUBESAT 2 24 Mar 10:17:17 10:20:53 29° 291° (WNW) 10:24:29 437.432
HO-68 24 Mar 10:21:05 10:27:07 30° 300° (WNW) 10:33:07 435.675
TIGRISAT 24 Mar 10:23:21 10:28:03 82° 77° (ENE) 10:32:45 435.000
SEEDS 24 Mar 10:25:17 10:27:25 14° 297° (WNW) 10:29:32 437.485
AO-73 24 Mar 10:27:03 10:31:12 52° 287° (WNW) 10:35:14 145.935
DELFI C3 24 Mar 10:27:33 10:31:18 39° 98° (E) 10:35:02 145.870
UNISAT 6 24 Mar 10:32:38 10:37:21 76° 259° (WSW) 10:42:02 437.425
QB50P2 24 Mar 10:37:44 10:39:16 12° 61° (ENE) 10:40:49 145.880/145.840
PRISM 24 Mar 10:38:52 10:42:21 27° 264° (W) 10:45:53 437.425
UWE-3 24 Mar 10:46:27 10:49:33 19° 295° (WNW) 10:52:36 435.000/436.395/437.385
DUCHIFAT 1 24 Mar 10:53:50 10:55:53 13° 62° (ENE) 10:57:58 145.980
FO-29 24 Mar 11:14:26 11:22:15 66° 258° (WSW) 11:29:43 435.910
AIST 2D 24 Mar 11:20:43 11:24:07 45° 74° (ENE) 11:27:31 435.315
LO-87 24 Mar 11:21:17 11:23:53 18° 94° (E) 11:26:27 145.935 - 145.965
Oscar 11 24 Mar 11:32:22 11:34:40 14° 297° (WNW) 11:36:57 .
ZACube-1 24 Mar 11:35:50 11:36:38 10° 300° (WNW) 11:37:25 437.345
NANOSAT C BR1 24 Mar 11:36:04 11:40:02 40° 71° (ENE) 11:44:02 145.865
PCSat 24 Mar 11:37:11 11:42:27 51° 305° (NW) 11:47:46 145.827
EO-79 24 Mar 11:38:39 11:42:45 46° 72° (ENE) 11:46:52 145.935-145.965
ESTCUBE 1 24 Mar 11:47:28 11:50:56 21° 94° (E) 11:54:23 437.505/2401.250
DELFI C3 24 Mar 12:03:11 12:05:47 17° 294° (WNW) 12:08:23 145.870
TIGRISAT 24 Mar 12:04:19 12:05:17 11° 272° (W) 12:06:14 435.000
POLYITAN 1 24 Mar 12:05:40 12:09:58 87° 258° (WSW) 12:14:17 437.675
QB50P2 24 Mar 12:10:11 12:14:27 72° 257° (WSW) 12:18:46 145.880/145.840
DUCHIFAT 1 24 Mar 12:26:51 12:31:03 61° 258° (WSW) 12:35:17 145.980
RS-15 24 Mar 12:27:16 12:37:18 33° 104° (ESE) 12:47:36 29.354- 29.394
SPROUT 24 Mar 12:41:49 12:45:06 21° 94° (E) 12:48:21 437.525
LO-87 24 Mar 12:54:10 12:57:22 29° 290° (WNW) 13:00:32 145.935 - 145.965
BUGSAT 1 24 Mar 12:54:16 12:58:29 90° 219° (SW) 13:02:47 437.445
AIST 2D 24 Mar 12:56:36 12:57:35 11° 269° (W) 12:58:35 435.315
DX 1 24 Mar 12:59:17 13:01:53 15° 92° (E) 13:04:30 434.975-435.025
FO-29 24 Mar 13:05:37 13:08:21 12° 276° (W) 13:11:04 435.910
VELOX 1 24 Mar 13:11:39 13:16:02 51° 100° (E) 13:20:21 145.980
NANOSAT C BR1 24 Mar 13:12:56 13:15:54 18° 267° (W) 13:18:53 145.865
Gurwin Techsat 1B 24 Mar 13:13:46 13:18:13 28° 65° (ENE) 13:22:41 435.225
EO-79 24 Mar 13:16:06 13:18:44 16° 268° (W) 13:21:23 145.935-145.965
Oscar 19 24 Mar 13:20:59 13:25:57 53° 71° (ENE) 13:30:56 437.125/150
ESTCUBE 1 24 Mar 13:23:41 13:27:51 37° 290° (WNW) 13:31:59 437.505/2401.250
PCSat 24 Mar 13:25:20 13:27:10 12° 327° (NNW) 13:29:00 145.827
UKube-1 24 Mar 13:44:01 13:47:56 32° 97° (E) 13:51:49 .
50 SAT 24 Mar 14:04:16 14:07:40 51° 287° (WNW) 14:11:04 437.505
NO-84 24 Mar 14:13:34 14:16:20 27° 31° (NNE) 14:19:17 435.350 FM
SPROUT 24 Mar 14:17:11 14:21:05 35° 290° (WNW) 14:24:57 437.525
AO-7 24 Mar 14:24:38 14:31:49 34° 57° (ENE) 14:39:00 .
DX 1 24 Mar 14:34:06 14:38:21 50° 289° (WNW) 14:42:36 434.975-435.025
RS-15 24 Mar 14:36:38 14:48:42 76° 306° (NW) 15:01:10 29.354- 29.394
VELOX 1 24 Mar 14:49:11 14:52:04 17° 297° (WNW) 14:54:57 145.980
Gurwin Techsat 1B 24 Mar 14:53:01 14:57:59 40° 262° (W) 15:02:58 435.225
ITAMSAT 1 24 Mar 15:01:55 15:06:53 47° 70° (ENE) 15:11:54 435.822/435.867
Oscar 19 24 Mar 15:02:02 15:05:35 19° 268° (W) 15:09:10 437.125/150
UKube-1 24 Mar 15:20:20 15:23:48 24° 294° (WNW) 15:27:16 .
SO-50 24 Mar 15:46:19 15:50:49 51° 119° (ESE) 15:55:17 436.795
NO-84 24 Mar 15:50:52 15:53:57 37° 226° (SW) 15:57:17 435.350 FM
BEESAT 24 Mar 15:59:21 16:04:06 66° 102° (ESE) 16:08:49 436.000
ITUPSAT 1 24 Mar 16:13:46 16:18:34 89° 101° (ESE) 16:23:19 437.325
AO-7 24 Mar 16:15:57 16:24:09 60° 256° (WSW) 16:32:22 .
MOZHAYETS 4 24 Mar 16:39:46 16:44:20 75° 102° (ESE) 16:48:52
KKS-1 24 Mar 16:41:22 16:44:13 16° 92° (E) 16:47:02 437.445
ITAMSAT 1 24 Mar 16:42:30 16:46:34 23° 266° (W) 16:50:39 435.822/435.867
RS-15 24 Mar 16:53:05 17:03:41 32° 335° (NNW) 17:14:25 29.354- 29.394
O/OREOS (USA 219) 24 Mar 16:54:42 16:57:27 16° 99° (E) 17:00:12 437.305
XW-2C 24 Mar 17:13:18 17:14:20 11° 63° (ENE) 17:15:21 145.795 - 145.815
DOVE 4 24 Mar 17:14:56 17:18:21 21° 64° (ENE) 17:21:57 437.250
STARS 24 Mar 17:24:29 17:27:50 21° 94° (E) 17:31:09 437.465
CUBESAT XI-V 24 Mar 17:25:00 17:29:19 37° 97° (E) 17:33:38 437.345
SO-50 24 Mar 17:27:49 17:31:33 23° 317° (NW) 17:35:15 436.795
BEESAT 24 Mar 17:38:39 17:41:20 15° 299° (WNW) 17:44:01 436.000
ITUPSAT 1 24 Mar 17:54:07 17:55:38 11° 302° (WNW) 17:57:09 437.325
LilacSat-2 24 Mar 18:00:55 18:04:31 39° 72° (ENE) 18:08:07 437.200
XW-2F 24 Mar 18:04:14 18:07:47 40° 72° (ENE) 18:11:21 145.980 - 146.000
CUTE-I 24 Mar 18:12:01 18:17:14 56° 71° (ENE) 18:22:30 437.470
YUBILEINY 24 Mar 18:14:25 18:21:28 26° 65° (ENE) 18:28:27 435.215
KKS-1 24 Mar 18:16:41 18:21:02 49° 288° (WNW) 18:25:20 437.445
MOZHAYETS 4 24 Mar 18:18:57 18:20:52 13° 299° (WNW) 18:22:47
XW-2D 24 Mar 18:28:14 18:32:04 86° 77° (ENE) 18:35:53 145.860 - 145.880
O/OREOS (USA 219) 24 Mar 18:31:58 18:36:22 51° 296° (WNW) 18:40:51 437.305
XW-2B 24 Mar 18:34:07 18:37:56 83° 257° (WSW) 18:41:45 145.730 - 145.750
NUDT-PHONESAT 24 Mar 18:37:00 18:40:46 86° 75° (ENE) 18:44:31 437.300
M-CUBED/EXP-1 PRIME 24 Mar 18:37:19 18:40:30 18° 97° (E) 18:43:42 437.505
KAITUO 1B 24 Mar 18:41:04 18:44:49 84° 257° (WSW) 18:48:35 145.475/437.950
PCSat 24 Mar 18:41:20 18:45:51 26° 46° (NE) 18:50:21 145.827
XW-2C 24 Mar 18:44:14 18:48:01 60° 259° (W) 18:51:48 145.795 - 145.815
DOVE 4 24 Mar 18:51:14 18:55:39 46° 262° (W) 19:00:23 437.250
STARS 24 Mar 19:00:11 19:04:18 38° 290° (WNW) 19:08:22 437.465
CUBEBUG 2 24 Mar 19:00:33 19:02:57 14° 62° (ENE) 19:05:21 437.445
HO-68 24 Mar 19:01:57 19:08:39 46° 65° (ENE) 19:15:23 435.675
CUBESAT XI-V 24 Mar 19:02:48 19:06:29 24° 294° (WNW) 19:10:11 437.345
RS-15 24 Mar 19:11:35 19:21:29 26° 10° (N) 19:31:15 29.354- 29.394
XW-2A 24 Mar 19:28:36 19:32:00 60° 75° (ENE) 19:35:25 145.665 - 145.685
AAUSAT CUBESAT 2 24 Mar 19:33:26 19:36:10 17° 65° (ENE) 19:38:54 437.432
LilacSat-2 24 Mar 19:36:46 19:38:58 15° 268° (W) 19:41:11 437.200
XW-2F 24 Mar 19:40:00 19:42:06 14° 268° (W) 19:44:14 145.980 - 146.000
SEEDS 24 Mar 19:40:11 19:44:06 41° 72° (ENE) 19:48:01 437.485
CUTE 1.7 + AOD 2 24 Mar 19:42:00 19:46:10 67° 75° (ENE) 19:50:21 437.475
AO-73 24 Mar 19:48:48 19:51:05 14° 63° (ENE) 19:53:22 145.935
CUTE-I 24 Mar 19:53:47 19:57:37 20° 268° (W) 20:01:29 437.470
UWE-3 24 Mar 20:06:17 20:10:34 37° 70° (ENE) 20:14:49 435.000/436.395/437.385
YUBILEINY 24 Mar 20:10:25 20:19:03 71° 267° (W) 20:27:41 435.215
M-CUBED/EXP-1 PRIME 24 Mar 20:10:40 20:15:08 52° 293° (WNW) 20:19:40 437.505
PCSat 24 Mar 20:24:16 20:29:34 55° 245° (WSW) 20:34:50 145.827
STRAND 1 24 Mar 20:31:21 20:36:28 69° 102° (ESE) 20:41:32 437.568
CUBEBUG 2 24 Mar 20:34:12 20:38:57 73° 258° (WSW) 20:43:42 437.445
Oscar 11 24 Mar 20:49:53 20:54:01 47° 73° (ENE) 20:58:10 .
HO-68 24 Mar 20:50:01 20:56:29 36° 263° (W) 21:02:58 435.675
ZACube-1 24 Mar 20:52:22 20:56:54 66° 75° (ENE) 21:01:23 437.345
AAUSAT CUBESAT 2 24 Mar 21:07:28 21:11:19 40° 262° (W) 21:15:13 437.432
DELFI C3 24 Mar 21:13:56 21:17:08 25° 69° (ENE) 21:20:22 145.870
SEEDS 24 Mar 21:17:16 21:19:58 17° 268° (W) 21:22:41 437.485
CUTE 1.7 + AOD 2 24 Mar 21:21:36 21:22:26 10° 271° (W) 21:23:16 437.475
AO-73 24 Mar 21:22:16 21:26:48 66° 260° (W) 21:31:16 145.935
RS-15 24 Mar 21:25:58 21:37:57 51° 42° (NE) 21:49:26 29.354- 29.394
AO-85 24 Mar 21:28:27 21:32:24 31° 116° (ESE) 21:36:08 145.980
UWE-3 24 Mar 21:43:21 21:47:04 23° 266° (W) 21:50:48 435.000/436.395/437.385
ISS 24 Mar 21:48:34 21:51:31 32° 138° (SE) 21:54:29 437.550
Tancredo 1 24 Mar 21:59:13 22:02:15 46° 141° (SE) 22:05:20 437.200
YUBILEINY 24 Mar 22:10:44 22:14:08 13° 287° (WNW) 22:17:34 435.215
STRAND 1 24 Mar 22:11:57 22:15:04 16° 300° (WNW) 22:18:09 437.568
TIGRISAT 24 Mar 22:15:41 22:18:21 16° 91° (E) 22:20:58 435.000
PRISM 24 Mar 22:18:48 22:22:37 34° 98° (E) 22:26:25 437.425
UNISAT 6 24 Mar 22:24:33 22:27:56 21° 93° (E) 22:31:15 437.425
FO-29 24 Mar 22:26:28 22:29:59 16° 86° (E) 22:33:18 435.910
Oscar 11 24 Mar 22:27:45 22:30:23 16° 269° (W) 22:33:03 .
ZACube-1 24 Mar 22:31:35 22:33:35 13° 271° (W) 22:35:32 437.345
SO-50 24 Mar 22:38:39 22:39:51 11° 31° (NNE) 22:41:02 436.795
